Вернуться в каталог

ARIANE 1 DEB *

АктивенSSO
NORAD 18290·DEBRIS·🇫🇷 France

Запущен Feb 22, 1986 с Guiana Space Centre

Loading…

Ближайшие Пролёты (ближайшие 24 часа)

TLE

СвежийSource: Space-Track

Эпоха: Sep 14, 2026, 13:13 UTC

1 18290U 86019RY  26257.55085799  .00000185  00000-0  60026-4 0  9996
2 18290  97.9533 160.7699 0090697 147.4799 213.2027 14.46538289159842

Отслеживайте ARIANE 1 DEB * в реальном времени с AllMySat

Download on the App Store